Location: Burleson Fire Department Station 2
(32.5391°N, 97.3075°W)
Time: 00:15:20
(UTC+00:00)

NOAA 15 - Pass Details

Date: 19 December 2025
Orbit: 793 x 810 km, 98.5° (Epoch: 20 January)

Event Time Altitude Azimuth Distance (km) Brightness Sun altitude
Rises 01:41:20 0° 187° (S) 3,310 8.0 -27.6°
Reaches altitude 10° 01:43:51 10° 196° (SSW) 2,381 7.3 -28.1°
Maximum altitude 01:48:39 36° 262° (W) 1,262 6.1 -29.1°
Drops below altitude 10° 01:53:28 10° 328° (NNW) 2,386 7.3 -30.1°
Sets 01:56:00 0° 337° (NNW) 3,318 8.0 -30.6°
